Regional Weather Roundup
Issued by NWS Binghamton, NY

Home | Current Version | Previous Version | Text Only | Print | Product List | Glossary On
Versions: 1 2 3 4 5 6 7 8 9 10 11 12 13 14 15 16 17 18 19 20 21 22 23 24 25 26 27 28 29 30 31 32 33 34 35 36 37 38 39 40 41 42 43 44 45 46 47 48 49 50
000
ASUS41 KBGM 300810
RWRBGM
RWRBGM
BINGHAMTON REGIONAL WEATHER ROUNDUP
NATIONAL WEATHER SERVICE BINGHAMTON NY
400 AM EDT SUN AUG 30 2015

Note: "fair" indicates few or no clouds below 12,000 feet with no
significant weather and/or obstructions to visibility.

* = Station(s) that does not report precipitation, such as rain,
snow, etc, also no thunder or fog.

!NYZ009-015>018-022>025-036-037-044>046-055>057-062-300900
...CENTRAL NEW YORK...

CITY           SKY/WX    TMP DP  RH WIND       PRES   REMARKS
BINGHAMTON     CLOUDY    62  60  93 CALM      30.10S
CORTLAND       CLOUDY    61  61 100 CALM      30.11S
DANSVILLE      LGT RAIN  64  60  87 SE5       30.08S
ELMIRA         CLOUDY    62  61  96 W5        30.07F
ITHACA         CLOUDY    62  60  93 CALM      30.10F
HORNELL        DRIZZLE   63  59  88 CALM      30.13S
MONTICELLO     MOCLDY    57  57 100 CALM      30.12F VSB 1/2
NORWICH        CLOUDY    57  55  94 CALM      30.11S
ONEONTA        CLEAR     59  59 100 CALM      30.11F
PENN YAN       CLOUDY    65  63  93 CALM      30.08F
ROME           CLOUDY    62  59  90 S3        30.10R
SIDNEY         CLOUDY    61  61 100 CALM      30.10S FOG
SYRACUSE       CLOUDY    65  61  87 SE5       30.07S
$$

!PAZ038>040-043-044-047-048-072-300900
...NORTHEAST PENNSYLVANIA...

CITY           SKY/WX    TMP DP  RH WIND       PRES   REMARKS
HAZLETON       FOG       61  61 100 CALM      30.15S VSB 1/2
SCRANTON       CLEAR     63  58  83 E6        30.09F
TOWANDA*       CLEAR     61  59  94 MISG      30.10S
$$
&&
KEY
WCI = WIND CHILL INDEX
VSB = VISIBILITY
HX  = HEAT INDEX
$$



USA.gov is the U.S. government's official web portal to all federal, state and local government web resources and services.